Location: Cisewo
(53.3833°N, 14.9000°E)
Time: 13:17:43
(UTC+00:00)

Cosmos 2333 Rocket - Pass Details

Date: 18 April 2021
Orbit: 838 x 864 km, 70.8° (Epoch: 16 May)

Event Time Altitude Azimuth Distance (km) Brightness Sun altitude
Rises 19:56:46 0° 321° (NW) 3,455 7.2 -14.7°
Reaches altitude 10° 19:59:43 10° 307° (NW) 2,512 6.0 -15.0°
Maximum altitude 20:04:03 22° 258° (WSW) 1,783 4.3 -15.5°
Drops below altitude 10° 20:08:21 10° 209° (SSW) 2,489 4.5 -15.9°
Enters shadow 20:10:56 - 196° (SSW) 3,301 5.0 -16.2°
